SCP
0 0 0 0 0 0 0 0 0 0 0 0 0 0 0 0 0 0 0 0 0 0 0 0 0 1 1 1 1 1 0 0 1 1 1 1 0 0 0 0 0 0 0 0
0 0 0 0 0 0 0 0 0 0 0 0 0 0 0 0 0 0 0 0 0 0 0 0 0 1 1 1 1 1 1 1 1 1 1 1 1 0 0 0 0 0 0 0
0 0 0 0 0 0 0 0 0 0 0 0 0 0 0 0 0 0 0 0 0 0 0 0 0 0 0 1 1 1 1 1 1 1 1 1 1 0 0 0 0 0 0 0
0 0 0 0 0 0 0 0 0 0 0 0 0 0 0 0 0 0 0 0 0 0 0 0 0 0 0 1 1 1 1 1 1 1 1 1 1 0 0 0 0 0 0 0
0 0 0 0 0 0 0 0 0 0 0 0 0 0 0 0 0 0 0 0 0 0 0 0 0 0 0 1 1 1 1 1 1 1 1 1 1 1 0 0 0 0 0 0
0 0 0 0 0 0 0 0 0 0 0 0 0 0 0 0 0 0 0 0 0 0 0 0 0 0 0 1 1 1 1 1 1 1 2 2 1 1 0 0 0 0 0 0
0 0 0 0 0 0 0 0 0 0 0 0 0 0 0 0 0 0 0 0 0 0 0 1 1 1 1 1 1 1 1 1 1 1 2 2 1 1 0 0 0 0 0 0
0 0 0 0 0 0 0 0 0 0 0 0 0 0 0 0 0 0 0 0 0 0 1 1 1 1 1 1 1 1 1 1 1 1 2 2 1 1 0 0 0 0 0 0
0 0 0 0 0 0 0 0 0 0 0 0 0 0 0 0 0 0 0 0 0 0 1 1 1 1 1 1 1 1 1 1 1 2 2 2 1 1 0 0 0 0 0 0
0 0 0 0 0 0 0 0 0 0 0 0 0 0 0 0 0 0 0 0 0 0 0 1 1 1 1 1 1 1 1 1 1 1 2 2 1 1 0 0 0 0 0 0
0 0 0 0 0 0 0 0 0 0 0 0 0 0 0 0 0 0 0 0 0 0 0 1 1 1 1 1 1 1 1 1 1 1 2 2 1 1 0 0 0 0 0 0
0 0 0 0 0 0 0 0 0 0 0 0 0 0 0 0 0 0 0 0 0 0 0 0 1 1 1 1 1 1 1 1 1 1 1 2 1 1 1 0 0 0 0 0
0 0 0 0 0 0 0 0 0 0 0 0 0 0 0 0 0 0 0 0 0 0 0 0 0 1 1 1 1 1 1 1 1 1 1 2 2 1 1 0 0 0 0 0
0 0 0 0 0 0 0 0 0 0 0 0 0 0 0 0 0 0 0 0 0 0 0 0 0 1 1 1 1 1 1 1 1 1 1 2 2 1 1 0 0 0 0 0
0 0 0 0 0 0 0 0 0 0 0 0 0 0 0 0 0 0 0 0 0 0 0 0 0 0 1 1 1 1 1 1 1 1 1 2 2 2 1 1 0 0 0 0
0 0 0 0 0 0 0 0 0 0 0 0 0 0 0 0 0 0 0 0 0 0 0 0 0 0 0 1 1 1 1 1 1 1 1 2 2 2 1 1 1 0 0 0
0 0 0 0 0 0 0 0 0 0 0 0 0 0 0 0 0 0 0 0 0 0 0 0 0 0 0 0 1 1 1 1 1 1 1 1 2 2 2 1 1 1 0 0
0 0 0 0 0 0 0 0 0 0 0 0 0 0 0 0 0 0 0 0 0 0 0 0 0 0 0 1 2 2 2 1 1 1 1 1 2 2 2 2 1 1 1 0
0 0 0 0 0 0 0 0 0 0 0 0 0 0 0 0 0 0 0 0 0 0 0 0 0 0 0 1 2 3 2 1 1 1 1 1 2 2 2 2 1 1 1 0
0 0 0 0 0 0 0 0 0 0 0 0 0 0 0 0 0 0 0 0 0 0 0 1 1 1 1 2 3 3 2 1 1 1 1 2 2 2 2 2 2 1 1 1
0 0 0 0 0 0 0 0 0 0 0 0 0 0 0 0 0 0 0 0 0 0 0 1 2 2 2 3 4 3 2 1 1 1 1 2 3 3 3 2 2 2 1 1
0 0 0 0 0 0 0 0 0 0 0 0 0 0 0 0 0 0 0 0 0 0 1 1 2 2 3 4 4 3 2 1 1 1 1 2 3 3 3 3 3 2 1 1
0 0 0 0 0 0 0 0 0 0 0 0 0 0 0 0 0 0 0 0 0 1 1 2 2 2 3 3 3 2 1 1 2 2 2 2 2 3 3 3 3 2 2 1
0 0 0 0 0 0 0 0 0 0 0 0 0 0 0 0 0 0 0 0 0 1 1 1 2 2 2 2 2 1 1 1 2 2 2 2 2 3 3 3 3 2 2 2
0 0 0 0 0 0 0 0 0 0 0 0 0 0 0 0 0 0 0 0 0 1 1 1 1 1 1 1 1 1 1 1 2 2 2 3 3 3 3 3 3 2 2 1
0 0 0 0 0 0 0 0 0 0 0 0 0 0 0 0 0 0 0 0 0 1 1 1 1 1 1 1 1 1 1 1 1 2 2 3 3 3 3 3 3 2 1 1
Wind_Speed
3 4 4 3 3 2 2 2 2 1 1 3 4 3 3 4 5 5 5 5 6 6 6 6 6 6 6 6 5 4 4 4 4 3 3 3 2 1 2 2 2 2 1 1
5 4 2 2 3 4 4 4 2 2 2 3 3 4 3 5 6 6 6 6 7 6 7 7 6 6 7 7 6 5 4 4 4 2 2 2 2 2 1 1 1 2 2 1
4 1 2 5 5 5 5 4 3 1 1 3 4 5 5 5 5 6 6 6 6 7 8 8 8 7 7 7 6 5 5 5 4 4 3 3 3 2 2 2 1 1 2 2
3 2 3 4 4 5 4 2 3 3 5 2 4 3 3 5 5 6 6 6 6 7 8 8 8 8 8 7 6 6 6 5 5 5 4 4 3 3 2 2 2 2 2 2
3 2 4 4 3 4 1 1 3 4 6 5 5 5 2 5 5 6 7 7 7 7 7 8 8 8 8 7 7 6 6 6 6 5 5 4 3 2 2 2 3 2 2 2
2 1 3 2 1 3 3 4 3 5 6 6 4 6 2 3 3 4 5 6 6 7 7 7 7 6 6 6 6 6 6 6 5 5 6 5 4 4 4 3 3 2 2 2
5 5 3 3 4 5 6 5 4 5 5 3 1 5 1 2 1 2 2 4 5 6 7 7 7 6 6 6 7 7 7 6 6 6 6 5 5 5 4 4 3 2 2 2
6 5 5 4 5 5 7 7 4 3 3 1 4 4 2 2 1 2 1 2 4 5 6 6 7 6 6 7 7 8 8 7 7 6 5 5 5 3 3 3 3 2 2 2
4 3 3 3 2 4 6 6 5 6 4 4 3 2 2 2 1 1 1 3 4 4 5 6 6 6 6 7 7 7 8 7 7 7 6 5 5 4 4 4 3 2 2 2
4 4 3 3 4 2 4 4 5 5 4 5 3 4 2 2 1 1 2 3 3 3 4 4 5 6 6 6 6 7 7 8 7 7 6 4 5 5 4 4 4 4 3 3
5 5 4 5 6 5 5 6 6 5 5 4 3 1 3 2 1 0 1 2 3 3 2 3 3 4 5 5 5 6 7 7 7 8 7 7 6 5 5 4 4 4 4 4
4 5 5 5 3 4 6 7 7 6 5 5 5 0 4 2 2 1 1 2 2 2 2 2 2 3 4 4 5 6 6 7 7 7 8 7 6 6 6 5 5 5 4 4
3 6 6 6 6 6 6 6 7 7 6 6 6 2 4 1 1 0 0 1 2 2 1 2 1 2 3 4 4 5 6 6 7 7 8 8 8 7 6 6 5 5 5 4
4 6 7 6 2 3 6 7 8 9 8 8 9 6 2 2 1 1 1 1 1 1 2 1 1 2 3 3 4 4 5 6 6 7 7 8 8 7 6 6 6 5 5 5
5 7 6 6 5 5 7 8 10 12 11 10 8 8 5 3 3 3 2 2 1 2 2 2 2 2 2 3 4 4 5 5 6 7 8 7 7 7 6 6 6 5 5 5
4 6 6 7 6 7 9 10 10 11 11 12 11 9 5 3 3 3 3 3 3 2 2 2 2 3 3 3 3 4 5 5 6 7 7 6 6 6 6 6 6 6 5 5
4 5 6 7 5 8 11 10 11 9 9 10 11 7 3 4 4 4 3 4 4 3 3 3 3 3 3 3 4 4 5 5 6 6 6 6 7 6 6 6 6 6 6 6
6 6 5 6 7 11 3 1 6 8 8 8 7 5 4 5 4 4 4 4 4 4 4 4 3 3 3 3 3 4 5 6 7 7 6 7 7 7 6 6 6 6 6 5
7 7 6 6 8 9 5 3 5 7 7 6 7 6 5 4 5 5 3 3 4 4 4 3 3 4 3 3 3 4 4 5 6 7 7 7 7 7 7 7 7 6 6 5
7 8 7 7 8 8 2 2 2 6 7 3 4 4 4 4 6 2 0 2 3 3 3 3 3 4 3 2 3 4 5 5 6 6 6 6 7 8 8 8 7 6 5 5
7 8 11 11 10 7 0 1 4 7 1 1 3 3 4 6 5 3 2 3 3 3 3 3 3 3 2 2 3 4 4 4 5 5 5 5 7 7 7 7 6 6 6 6
7 7 9 9 10 6 3 4 5 1 3 2 3 3 4 6 5 3 4 4 3 3 3 3 2 2 2 3 4 4 3 3 3 4 5 5 6 6 6 6 6 6 6 6
6 6 4 6 4 2 2 3 2 3 4 4 4 4 5 5 5 5 4 4 4 4 4 3 3 3 3 3 4 4 3 2 3 4 5 5 5 5 6 6 6 6 6 5
4 5 7 6 6 5 4 5 5 5 5 5 5 5 6 6 6 6 5 5 4 4 4 3 4 4 3 3 4 3 2 3 4 4 5 5 5 5 5 5 5 5 6 6
5 5 7 9 7 6 7 6 6 5 5 6 6 6 6 6 6 6 6 6 5 4 4 4 4 4 4 3 4 3 3 4 4 4 4 4 4 4 5 5 4 5 6 5
7 8 8 7 6 7 6 5 6 7 7 7 6 6 6 6 7 7 6 6 5 4 4 4 4 4 4 3 3 3 3 4 4 4 4 4 3 3 4 4 3 2 3 3
Wind_Direction
183 207 204 199 220 280 235 211 199 143 160 228 228 227 201 189 203 209 206 200 195 189 177 173 176 175 174 171 172 160 166 165 168 163 161 154 142 128 99 81 70 70 67 82
189 209 228 206 191 210 213 214 206 149 149 245 247 251 227 203 212 220 219 209 202 193 182 178 181 184 185 178 173 169 176 173 173 169 160 148 126 129 102 93 75 69 77 84
208 93 170 190 193 210 223 243 242 237 195 215 259 231 202 195 207 213 222 220 208 202 196 186 187 191 190 189 180 182 186 178 175 168 158 146 141 158 160 148 114 69 66 73
221 197 199 204 210 233 227 241 245 237 247 223 252 270 185 189 198 209 216 213 213 206 202 194 189 193 193 192 184 190 187 186 179 176 177 173 174 170 160 143 131 133 106 98
186 194 214 220 223 242 260 200 225 243 258 257 234 261 185 181 213 216 212 210 207 202 200 194 192 196 197 190 187 192 187 186 181 186 180 194 186 159 141 133 140 147 121 111
199 201 257 255 230 217 173 185 197 226 247 249 240 249 219 176 226 219 203 203 200 196 195 193 185 185 190 188 187 191 191 185 184 189 191 197 181 174 159 154 150 152 136 128
196 197 197 216 193 181 212 224 222 217 216 224 163 245 240 65 297 269 227 197 188 185 188 187 183 182 187 189 191 190 189 185 184 193 197 191 185 189 179 168 168 177 161 150
210 199 187 203 226 211 213 234 252 267 262 195 190 238 122 90 340 303 239 181 177 178 183 188 191 189 192 192 192 192 190 189 184 189 194 194 180 189 175 173 176 185 168 149
231 201 153 191 235 234 211 226 260 275 273 266 218 204 186 179 206 181 123 139 161 172 181 189 191 191 191 191 193 195 192 191 188 188 186 191 186 182 179 183 177 177 174 152
257 234 181 180 195 214 259 229 220 239 258 250 233 231 231 167 168 104 119 135 145 162 177 187 194 193 190 192 196 195 194 193 192 189 184 179 187 185 188 185 180 179 172 165
244 238 190 198 220 213 195 211 232 238 253 271 262 154 44 355 347 56 118 127 134 148 167 180 194 191 189 188 190 193 193 195 193 191 186 184 185 186 186 187 180 180 176 177
228 254 232 212 219 272 242 232 230 239 233 248 273 163 80 22 9 360 95 127 134 144 147 151 166 180 187 190 197 198 195 196 196 194 191 188 182 183 189 189 184 185 181 183
208 241 231 201 192 198 223 229 236 247 249 241 247 208 109 58 340 11 210 149 145 154 151 142 151 179 187 196 204 206 202 200 197 194 194 190 189 188 190 191 188 189 188 185
242 242 252 259 285 208 222 223 228 236 243 244 246 258 233 252 261 266 250 228 190 186 174 167 182 199 204 206 208 208 208 202 199 195 195 195 195 192 190 191 190 193 190 191
244 250 249 262 268 251 247 239 230 238 247 255 257 260 273 279 275 269 256 236 216 207 207 212 222 221 218 216 213 212 212 202 197 196 198 198 195 190 191 191 190 191 193 201
240 255 252 244 239 248 251 246 241 243 248 250 255 256 266 276 264 253 247 234 234 230 229 237 242 237 226 219 216 215 211 203 198 200 198 191 191 188 189 194 195 189 193 201
211 237 251 252 234 251 245 236 232 232 237 245 251 257 257 251 248 249 253 243 242 245 250 249 252 251 244 231 217 214 213 204 201 200 194 190 192 189 192 194 194 192 197 201
230 232 245 258 242 242 239 176 226 234 240 242 255 260 256 264 264 257 257 252 254 258 260 261 262 257 257 245 226 214 209 205 203 199 193 191 194 191 195 199 197 200 201 198
234 225 232 242 246 255 228 211 218 227 242 237 240 249 257 272 248 230 221 253 272 269 268 269 268 260 249 236 225 210 206 206 205 203 199 193 193 193 195 199 199 202 201 199
209 224 233 234 245 248 206 130 224 237 233 209 233 245 255 256 249 240 331 263 268 273 268 269 267 254 236 222 211 206 204 206 208 207 206 197 195 196 199 201 200 200 201 204
197 209 224 235 244 253 73 159 201 226 244 120 236 250 249 250 282 310 285 268 263 264 267 262 256 248 235 220 212 215 212 217 216 209 205 199 197 198 201 200 198 197 198 202
216 215 218 226 235 236 133 178 214 297 14 317 277 274 269 273 286 280 269 268 260 257 259 250 245 248 235 221 218 219 223 226 217 201 201 201 201 197 194 193 196 199 197 202
227 241 244 235 248 25 165 209 278 315 299 296 286 287 282 280 282 280 272 267 261 256 252 246 241 241 237 227 226 227 220 219 209 197 199 201 200 198 195 192 194 197 198 206
223 244 240 239 237 242 250 257 272 281 287 299 291 282 276 276 280 280 276 269 262 251 246 242 238 234 230 223 227 232 216 215 210 201 199 197 197 196 196 198 200 201 202 208
247 235 241 244 249 257 250 249 263 275 281 286 286 280 278 277 274 274 275 270 262 249 244 242 242 241 238 228 222 220 220 216 210 201 196 198 199 195 198 199 208 213 214 217
232 233 242 253 256 257 262 266 271 276 281 284 283 283 282 278 275 275 273 270 262 252 245 240 241 240 232 225 220 214 221 222 214 204 198 197 197 195 198 198 198 213 247 220